sat.trackr.live / text

‹ back to catalog

STAR ONE C4

NORAD 40733 · 2015-034B

PAYLOAD ACTIVE UNKNOWN

§ Identity

Operator
Country
BRAZ
Launch date
2015-07-15
Launch site
FRGUI
Launch vehicle
Mass (kg)
RCS (m²)
23.31

Purposes: comms

External: N2YO · Heavens-Above · Gunter

§ Orbital elements

Epoch: 2026-05-25T04:31:38.768160Z

Period
1,436.11 min
Inclination
0.0262°
Eccentricity
0.0002540
Mean motion
1.00270620 rev/d
Perigee alt
35,776.2 km
Apogee alt
35,797.6 km
Semi-major
42,165.1 km
B*
0.0000e+0
RAAN
6.0420°
Arg perigee
46.8411°
Mean anomaly
187.8047°
Rev number
3,978

§ Raw data

STAR ONE C41 40733U 15034B   26145.18864315 -.00000267  00000+0  00000+0 0  99982 40733   0.0262   6.0420 0002540  46.8411 187.8047  1.00270620 39786

JSON: /api/v1/satellites/40733 · /tle

For live sub-satellite position, see the globe view (requires WebGL).

§ Visibility from observer

Set your observer location to see the next 7 days of passes ≥ 10°. The values pass through the URL so the page stays shareable.

No JS? Fill the form by hand. The geolocation button needs JavaScript.